Regional Weather Roundup
Issued by NWS

Home | Current Version | Previous Version | Text Only | Print | Product List | Glossary On
Versions: 1 2 3 4 5 6 7 8 9 10 11 12 13 14 15 16 17 18 19 20 21 22 23 24 25 26 27 28 29 30 31 32 33 34 35 36 37 38 39 40 41 42 43 44 45 46 47 48 49 50
000
ASUS44 KJAN 040310
RWRMS

MISSISSIPPI HOURLY WEATHER ROUNDUP
NATIONAL WEATHER SERVICE JACKSON MS
1000 PM CDT SUN MAY 03 2015

NOTE: "FAIR: INDICATES FEW OR NO CLOUDS BELOW 12,000 FEET WITH NO
SIGNIFICANT WEATHER AND/OR OBSTRUCTIONS TO VISIBILITY.

MSZ001>002-007>008-010>013-018>021-025>028-034>036-040400-
NORTHWEST MISSISSIPPI

CITY           SKY/WX    TMP DP  RH WIND       PRES   REMARKS
CLARKSDALE     FAIR      72  55  56 CALM      30.08R
CLEVELAND      FAIR      71  59  65 S6        30.06R
GREENWOOD      CLEAR     68  58  70 S3        30.08R
GREENVILLE     CLEAR     69  56  62 S7        30.06R
OLIVE BRANCH   CLEAR     70  52  52 SE7       30.08R
OXFORD         LGT RAIN  63  52  67 SE6       30.11R
TUNICA         CLEAR     68  54  60 CALM      30.07R
$$

MSZ003>006-009-014>017-022>024-029>033-037>039-040400-
NORTHEAST MISSISSIPPI

CITY           SKY/WX    TMP DP  RH WIND       PRES   REMARKS
COLUMBUS AFB   CLEAR     63  55  74 SE6       30.11R
CORINTH        FAIR      61  55  82 SE5       30.10R
GOLDN TRIANGLE CLEAR     68  52  56 SE6       30.11R
STARKVILLE     FAIR      63  55  77 CALM      30.12R
TUPELO         CLEAR     68  53  58 S5        30.11R
$$

MSZ040-058-040400-
CENTRAL MISSISSIPPI

CITY           SKY/WX    TMP DP  RH WIND       PRES   REMARKS
JACKSON INTL   CLEAR     65  54  67 SE6       30.10R
JACKSON HAWKNS CLEAR     67  54  63 CALM      30.10R
MERIDIAN KEY   MOCLDY    61  55  81 CALM      30.13R
MERIDIAN NAS   CLEAR     63  52  67 CALM      30.13R
RAYMOND        CLOUDY    63  57  82 CALM      30.10R
VICKSBURG      CLEAR     63  59  87 CALM      30.08R
$$

MSZ059>079-040400-
SOUTH MISSISSIPPI

CITY           SKY/WX    TMP DP  RH WIND       PRES   REMARKS
BROOKHAVEN     FAIR      64  54  68 CALM      30.13R
HATTIESBURG    CLEAR     67  55  65 S7        30.14R
MCCOMB         CLEAR     65  56  72 CALM      30.12R
NATCHEZ        CLEAR     66  61  82 S3        30.10R
PINE BELT      CLEAR     64  50  59 S5        30.15R
$$

MSZ080>082-040400-
COASTAL MISSISSIPPI

CITY           SKY/WX    TMP DP  RH WIND       PRES   REMARKS
BILOXI         CLEAR     71  61  70 SE6       30.13R
PASCAGOULA     CLEAR     61  59  93 CALM      30.14R
GULFPORT       CLEAR     70  59  68 E9        30.13R
$$



USA.gov is the U.S. government's official web portal to all federal, state and local government web resources and services.